Location: Selby
(38.0566°N, 122.2439°W)
Time: 07:34:24
(UTC+00:00)

deb Chang Zheng 4 - Visible Passes

Search period start: 07 October 2024 00:00
Search period end: 17 October 2024 00:00
Orbit: 577 x 589 km, 98.1° (Epoch: 06 October)

Date Brightness Start Highest point End Pass type
(mag) Time Alt. Az. Time Alt. Az. Time Alt. Az.
07 Oct ? 02:28:11 13° E 02:30:00 16° ENE 02:32:36 10° NNE visible
07 Oct ? 04:04:36 36° WSW 04:05:01 37° W 04:08:53 10° NNW visible
08 Oct ? 02:34:11 16° E 02:35:37 19° ENE 02:38:30 10° NNE visible
08 Oct ? 04:10:35 32° W 04:10:42 32° W 04:14:25 10° NNW visible
09 Oct ? 02:39:59 19° E 02:41:03 21° ENE 02:44:10 10° NNE visible
09 Oct ? 04:16:22 28° W 04:16:22 28° W 04:19:45 10° NW visible
10 Oct ? 02:45:35 23° E 02:46:17 24° ENE 02:49:36 10° NNE visible
10 Oct ? 04:21:57 24° W 04:21:57 24° W 04:24:51 10° NW visible
11 Oct ? 02:50:59 26° ENE 02:51:19 27° ENE 02:54:47 10° NNE visible
11 Oct ? 04:27:19 20° W 04:27:19 20° W 04:29:44 10° NW visible
12 Oct ? 02:56:10 30° ENE 02:56:10 30° ENE 02:59:46 10° N visible
12 Oct ? 04:32:30 17° WNW 04:32:30 17° WNW 04:34:24 10° NW visible
13 Oct ? 03:01:08 33° ENE 03:01:08 33° ENE 03:04:31 10° N visible
13 Oct ? 04:37:28 15° WNW 04:37:28 15° WNW 04:38:50 10° NW visible
14 Oct ? 03:05:55 35° NE 03:05:55 35° NE 03:09:04 10° N visible
14 Oct ? 04:42:13 12° WNW 04:42:13 12° WNW 04:43:01 10° WNW visible
15 Oct ? 03:10:29 35° NE 03:10:29 35° NE 03:13:24 10° N visible
15 Oct ? 04:46:47 11° WNW 04:46:47 11° WNW 04:46:58 10° WNW visible
16 Oct ? 03:14:51 34° NNE 03:14:51 34° NNE 03:17:31 10° N visible
